[[{"header":{"parameterUnit":"m.s-1","parameterCategory":1,"la1":30.2992,"la2":30.254,"lo1":-89.0895,"lo2":-89.0443,"dy":0.0025,"dx":0.0025,"nx":19,"ny":19,"refTime":"2026-04-30T03:00:00:Z","depth":0,"parameterNumber":2,"parameterNumberName":"U-component_of_WINDS"},"data":[0,0,0,-5.8248,-5.825,-5.8318,-5.8318,-5.8436,-5.8437,0,0,0,0,0,0,0,0,0,0,0,-5.8247,-5.8248,-5.8248,-5.825,-5.8318,-5.8318,-5.8436,-5.8437,0,0,0,0,0,0,0,0,0,0,0,-5.8246,-5.8248,-5.825,-5.825,-5.8318,-5.8318,-5.8436,-5.8373,0,0,0,0,0,0,0,0,0,0,-5.8301,-5.832,-5.8248,-5.825,-5.8251,-5.8318,-5.8318,-5.837,-5.8377,-5.8419,0,-5.8461,0,-5.8452,-5.8447,-5.8448,0,0,0,-5.8235,-5.8314,-5.8315,-5.825,-5.8252,-5.8318,-5.8283,-5.8373,-5.8382,-5.8429,-5.8463,-5.8466,-5.8454,-5.8448,-5.8449,-5.8739,-5.8741,0,0,-5.8232,-5.827,-5.8309,-5.8321,-5.8313,-5.8281,-5.8285,-5.8378,-5.8417,-5.8463,-5.8468,-5.8455,-5.8449,-5.845,-5.8737,-5.874,0,0,0,-5.8231,-5.8268,-5.8265,-5.8317,-5.8327,-5.8283,-5.8288,-5.8413,-5.8409,-5.8469,-5.8457,-5.845,-5.8452,-5.8735,-5.8738,-5.8876,0,0,0,-5.8228,-5.8267,-5.8265,-5.8288,-5.8326,-5.8371,-5.8322,-5.8403,-5.8412,-5.8456,-5.845,-5.8453,-5.8732,-5.8736,-5.8867,-5.8935,0,0,0,-5.8236,-5.8267,-5.8284,-5.829,-5.8321,-5.8369,-5.837,-5.8404,-5.8405,-5.8448,-5.8454,-5.8731,-5.8736,-5.886,-5.8922,-5.9023,0,0,0,-5.8255,-5.8405,-5.8287,-5.8449,-5.8321,-5.8453,-5.8369,-5.8465,-5.8518,-5.8451,-5.8733,-5.8738,-5.8857,-5.8914,-5.9015,-5.9116,-5.9161,0,0,-5.8466,-5.8432,-5.8524,-5.842,-5.8584,-5.844,-5.8623,-5.8636,-5.8605,-5.8696,-5.8702,-5.887,-5.8921,-5.9021,-5.9399,-5.9435,0,0,0,-5.8604,-5.8671,-5.8706,-5.8759,-5.8772,-5.8789,-5.8769,-5.8774,-5.8849,-5.866,-5.8932,-5.8961,-5.9019,-5.9065,-5.9096,-5.9142,-5.876,-5.876,-5.8759,-5.8957,-5.8909,-5.9059,-5.902,-5.9072,-5.905,-5.9088,-5.909,-5.9026,-5.9092,-5.9119,-5.9354,-5.9409,-5.9432,-5.9482,-5.9167,-5.9168,-5.9168,-5.9168,-5.9261,-5.9349,-5.9261,-5.9375,-5.9324,-5.9419,-5.9403,-5.9355,-5.9436,-5.9329,-5.9377,-5.9266,-5.9474,-5.9514,-5.9178,-5.9177,-5.9175,-5.9174,-5.9174,-5.9488,-5.9522,-5.9525,-5.9596,-5.9655,-5.9609,-5.9692,-5.9641,-5.9595,-5.9642,-5.9665,-5.9663,-5.9655,-5.9656,-5.9657,-5.9658,-5.9659,-5.9659,-5.966,-5.9723,-5.9722,-5.9797,-5.9824,-5.985,-5.9879,-5.9858,-5.9883,-5.9898,-5.9855,-5.9855,-5.9786,-5.9502,-5.9433,-5.9672,-5.967,-5.9669,-5.9667,-5.9666,-6.0052,-5.997,-6.0086,-6.0114,-6.014,-6.0203,-6.0137,-6.0192,-6.0205,-6.0247,-6.0167,-5.9965,-5.9927,-5.9903,-5.9845,-6.0177,-6.0177,-6.0177,-6.0177,-6.0245,-6.022,-6.0328,-6.0374,-6.0414,-6.0366,-6.05,-6.0484,-6.0456,-6.0461,-6.0405,-6.0323,-6.03,-6.0276,-6.0243,-6.0188,-6.06,-6.06,-6.0601,-6.0445,-6.0421,-6.0545,-6.0515,-6.0532,-6.0548,-6.0671,-6.0728,-6.0678,-6.0617,-6.0464,-6.0446,-6.0314,-6.0273,-6.021,-6.016,-6.0059,0,0]},{"header":{"parameterUnit":"m.s-1","parameterCategory":1,"la1":30.2992,"la2":30.254,"lo1":-89.0895,"lo2":-89.0443,"dy":0.0025,"dx":0.0025,"nx":19,"ny":19,"refTime":"2026-04-30T03:00:00:Z","depth":0,"parameterNumber":3,"parameterNumberName":"V-component_of_WINDS"},"data":[0,0,0,-6.1412,-6.1414,-6.1511,-6.1511,-6.1647,-6.1648,0,0,0,0,0,0,0,0,0,0,0,-6.1393,-6.1395,-6.1411,-6.1414,-6.1511,-6.1511,-6.1646,-6.1648,0,0,0,0,0,0,0,0,0,0,0,-6.1393,-6.1394,-6.1396,-6.1415,-6.151,-6.1511,-6.1646,-6.1568,0,0,0,0,0,0,0,0,0,0,-6.1472,-6.1466,-6.1394,-6.1396,-6.1415,-6.151,-6.1511,-6.1564,-6.1573,-6.1609,0,-6.1646,0,-6.1649,-6.1658,-6.1659,0,0,0,-6.1406,-6.1459,-6.1476,-6.1396,-6.1416,-6.151,-6.1465,-6.1569,-6.1579,-6.1621,-6.1648,-6.1652,-6.1652,-6.1659,-6.166,-6.1899,-6.19,0,0,-6.1401,-6.1416,-6.1469,-6.1483,-6.1471,-6.1462,-6.1468,-6.1575,-6.1604,-6.1648,-6.1655,-6.1654,-6.166,-6.1661,-6.1897,-6.1899,0,0,0,-6.1391,-6.1412,-6.1426,-6.1477,-6.1494,-6.1465,-6.1472,-6.16,-6.1603,-6.1657,-6.1655,-6.1661,-6.1663,-6.1896,-6.1898,-6.1987,0,0,0,-6.1387,-6.1407,-6.1424,-6.1435,-6.1492,-6.1549,-6.1495,-6.1596,-6.1607,-6.1655,-6.1661,-6.1664,-6.1894,-6.1897,-6.1981,-6.2027,0,0,0,-6.1383,-6.1406,-6.1424,-6.1435,-6.1478,-6.1547,-6.1556,-6.1598,-6.1607,-6.1659,-6.1665,-6.1893,-6.1896,-6.1976,-6.2018,-6.2093,0,0,0,-6.1383,-6.1502,-6.1426,-6.1557,-6.1477,-6.1602,-6.1555,-6.1647,-6.1702,-6.1662,-6.1894,-6.1898,-6.1974,-6.2012,-6.2088,-6.216,-6.2192,0,0,-6.1541,-6.1522,-6.1597,-6.1532,-6.1675,-6.1586,-6.174,-6.1776,-6.1766,-6.1854,-6.186,-6.1983,-6.2017,-6.2092,-6.2364,-6.2389,0,0,0,-6.1653,-6.1707,-6.1742,-6.1796,-6.1826,-6.1855,-6.1865,-6.1878,-6.1952,-6.1815,-6.203,-6.205,-6.2094,-6.2127,-6.2149,-6.2184,-6.1914,-6.1914,-6.1913,-6.1899,-6.188,-6.2003,-6.1996,-6.2048,-6.2057,-6.2096,-6.2114,-6.208,-6.2131,-6.2157,-6.2325,-6.2365,-6.2381,-6.2418,-6.2194,-6.2194,-6.2195,-6.2195,-6.2128,-6.2202,-6.2152,-6.2255,-6.2233,-6.2318,-6.2329,-6.2302,-6.2376,-6.2304,-6.2341,-6.2264,-6.2409,-6.244,-6.2201,-6.22,-6.2199,-6.2199,-6.2198,-6.2287,-6.2319,-6.2333,-6.2407,-6.2465,-6.2452,-6.2525,-6.2503,-6.2482,-6.2518,-6.2543,-6.2541,-6.2536,-6.2532,-6.2532,-6.2533,-6.2533,-6.2534,-6.2534,-6.2447,-6.2459,-6.2525,-6.2565,-6.2595,-6.2632,-6.2639,-6.2668,-6.2693,-6.267,-6.267,-6.263,-6.2427,-6.2376,-6.2543,-6.2541,-6.254,-6.2539,-6.2539,-6.2687,-6.2628,-6.273,-6.276,-6.2804,-6.2862,-6.2832,-6.2891,-6.2911,-6.2947,-6.2898,-6.2752,-6.273,-6.2712,-6.267,-6.2903,-6.2903,-6.2903,-6.2903,-6.2821,-6.2807,-6.2904,-6.2954,-6.2999,-6.2981,-6.3093,-6.3099,-6.3096,-6.3106,-6.3069,-6.3011,-6.2994,-6.2981,-6.2958,-6.2918,-6.3209,-6.3209,-6.321,-6.2966,-6.2955,-6.3057,-6.3054,-6.3086,-6.3113,-6.3217,-6.3273,-6.3257,-6.3221,-6.3113,-6.31,-6.3006,-6.2977,-6.294,-6.2905,-6.2831,0,0]}]]